Location: ?????????
(55.6553°N, 38.9075°E)
Time: 12:27:56
(UTC+00:00)

GP-B - Pass Details

Date: 18 October 2019
Orbit: 632 x 635 km, 89.8° (Epoch: 21 November)

Event Time Altitude Azimuth Distance (km) Brightness Sun altitude
Rises 02:00:28 0° 161° (SSE) 2,925 6.6 -17.5°
Reaches altitude 10° 02:02:43 10° 157° (SSE) 2,021 5.9 -17.2°
Maximum altitude 02:07:00 50° 82° (E) 813 4.1 -16.6°
Drops below altitude 10° 02:11:20 10° 7° (N) 2,036 5.9 -16.0°
Sets 02:13:37 0° 3° (N) 2,950 6.7 -15.7°
